Regional Weather Roundup
Issued by NWS

Home | Current Version | Previous Version | Graphics & Text | Print | Product List | Glossary On
Versions: 1 2 3 4 5 6 7 8 9 10 11 12 13 14 15 16 17 18 19 20 21 22 23 24 25 26 27 28 29 30 31 32 33 34 35 36 37 38 39 40 41 42 43 44 45 46 47 48 49 50
310
ASUS43 KFSD 160402
RWRSD

WEATHER ROUNDUP FOR SOUTH DAKOTA
NATIONAL WEATHER SERVICE SIOUX FALLS SD
1000 PM CST SUN JAN 15 2017

NOTE: "FAIR" INDICATES FEW OR NO CLOUDS BELOW 12,000 FEET WITH NO
SIGNIFICANT WEATHER AND/OR OBSTRUCTIONS TO VISIBILITY.


SDZ001>005-009-010-012>017-160500-
NORTHWEST AND NORTH CENTRAL SOUTH DAKOTA

CITY           SKY/WX    TMP DP  RH WIND       PRES   REMARKS
BUFFALO          N/A     10   6  84 NW7       29.96R WCI  -1
FAITH            N/A     14   9  80 CALM      30.04R
MOBRIDGE       CLOUDY     4  -2  76 SE7       30.05S WCI  -8
$$

SDZ012>016-024>037-041>051-057-063-072>074-160500-
SOUTHWEST AND SOUTH CENTRAL SOUTH DAKOTA

CITY           SKY/WX    TMP DP  RH WIND       PRES   REMARKS
RAPID CTY ARPT CLOUDY    22  10  60 N12       30.03R WCI  10
PIERRE         CLOUDY     8   4  83 NW5       30.09S WCI   0
CUSTER         CLOUDY    25  13  60 NW8       30.00R WCI  16
ELLSWORTH AFB  CLOUDY    19   7  61 CALM      30.02R
PHILIP         CLOUDY     9   7  92 W6        30.07S WCI  -1
PINE RIDGE     CLOUDY    16  14  92 CALM      30.03R
SPEARFISH      FAIR      25   9  50 W3        30.03R
WINNER         FAIR      24  19  81 SW3       30.07S
$$

SDZ004>011-016>023-039-040-160500-
NORTHEAST SOUTH DAKOTA

CITY           SKY/WX    TMP DP  RH WIND       PRES   REMARKS
ABERDEEN       CLOUDY     1  -3  83 SW7       30.12S WCI -12
WATERTOWN      CLOUDY    16  14  92 SE5       30.11R WCI   9
BROOKINGS      CLOUDY    18  16  92 SE5       30.12S WCI  11
SISSETON         N/A     15  13  91 S7        30.10S WCI   5
$$

SDZ017-020-022-023-036>040-048>070-160500-
SOUTHEAST SOUTH DAKOTA

CITY           SKY/WX    TMP DP  RH WIND       PRES   REMARKS
SIOUX FALLS    CLOUDY    22  16  78 CALM      30.14S
HURON          CLOUDY     9   7  92 CALM      30.12R
CHAMBERLAIN    CLOUDY    20  16  85 CALM      30.09S
MITCHELL       CLOUDY    23  19  85 S7        30.12S WCI  15
YANKTON        CLOUDY    28  19  69 SE5       30.13S WCI  23
$$

ABBREVIATIONS USED IN REMARKS
   TC - TEMPERATURE IN CELSIUS
  WCI - WIND CHILL INDEX
   HX - HEAT INDEX
  VSB - VISIBILITY





USA.gov is the U.S. government's official web portal to all federal, state and local government web resources and services.